Regional Weather Roundup
Issued by NWS Little Rock, AR

Home | Current Version | Previous Version | Text Only | Print | Product List | Glossary Off
Versions: 1 2 3 4 5 6 7 8 9 10 11 12 13 14 15 16 17 18 19 20 21 22 23 24 25 26 27 28 29 30 31 32 33 34 35 36 37 38 39 40 41 42 43 44 45 46 47 48 49 50

000
ASUS44 KLZK 010905
RWRLZK

WEATHER ROUNDUP FOR ARKANSAS
NATIONAL WEATHER SERVICE LITTLE ROCK AR
400 AM CDT FRI AUG 01 2014

NOTE: "FAIR" INDICATES FEW OR NO CLOUDS BELOW 12,000 FEET WITH NO
SIGNIFICANT WEATHER AND/OR OBSTRUCTIONS TO VISIBILITY.

ARZ001-003-010-029-011000-
NORTHWEST ARKANSAS

CITY           SKY/WX    TMP DP  RH WIND       PRES   REMARKS
FAYETTEVILLE   CLOUDY    65  65 100 CALM      30.08F
FORT SMITH     CLOUDY    70  66  87 NE5       30.05F
HARRISON       FOG       65  65 100 CALM      30.09S VSB 1/4
BENTONVILLE    CLOUDY    66  63  88 CALM      30.09F
ROGERS         FOG       66  64  93 SW5       30.10S VSB 1/2
SILOAM SPGS    CLEAR     64  57  77 CALM      30.09F
HIGHFILL       CLOUDY    65  65 100 SW3       30.08F
$$

ARZ004-005-016-011000-
NORTH CENTRAL ARKANSAS

CITY           SKY/WX    TMP DP  RH WIND       PRES   REMARKS
BATESVILLE     CLOUDY    66  66 100 CALM      30.06S
FLIPPIN        CLOUDY    64  64 100 CALM      30.08S VSB 1/4
MTN HOME       FOG       62  62 100 CALM      30.07S VSB 1/4
$$

ARZ040-041-011000-
WEST CENTRAL ARKANSAS

CITY           SKY/WX    TMP DP  RH WIND       PRES   REMARKS
MENA           CLOUDY    68  66  94 CALM      30.06S
MOUNT IDA      CLOUDY    66  65  96 CALM      30.03S FOG
$$

ARZ009-017-025-026-028-011000-
NORTHEAST ARKANSAS

CITY           SKY/WX    TMP DP  RH WIND       PRES   REMARKS
CORNING        CLOUDY    68  68 100 NE5       30.07R FOG
JONESBORO      CLOUDY    69  66  90 CALM      30.05F
NEWPORT        CLOUDY    69  68  97 VRB7      30.07S FOG
WALNUT RIDGE   PTCLDY    70  64  83 CALM      30.06R
BLYTHEVILLE    CLOUDY    70  68  93 CALM      30.06S
$$

ARZ022-023-033-042-044-011000-
CENTRAL ARKANSAS

CITY           SKY/WX    TMP DP  RH WIND       PRES   REMARKS
LITTLE ROCK    CLOUDY    70  65  84 N5        30.04F
N LITTLE ROCK    N/A     67  67  99 N5        30.04F
JACKSONVILLE   CLOUDY    68  67  96 CALM      30.04F
SEARCY         CLOUDY    68  67  96 NW3       30.06F
HOT SPRINGS    CLOUDY    67  65  93 CALM      30.04S
RUSSELLVILLE   CLOUDY    69  67  93 CALM      30.05S FOG
CLINTON        MOCLDY    66  66 100 CALM      30.07F FOG
$$

ARZ036-011000-
EAST ARKANSAS

CITY           SKY/WX    TMP DP  RH WIND       PRES   REMARKS
WEST MEMPHIS   CLOUDY    69  69 100 NW3       30.04S
$$

ARZ050-053-066-070-073-011000-
SOUTHWEST ARKANSAS

CITY           SKY/WX    TMP DP  RH WIND       PRES   REMARKS
ARKADELPHIA    CLOUDY    68  68 100 NE6       30.02F
CAMDEN         LGT RAIN  68  66  94 CALM      30.01F
TEXARKANA      CLOUDY    66  65  96 E6        30.00F FOG
EL DORADO      HVY RAIN  66  65  96 SE8       30.01F FOG
DE QUEEN       CLOUDY    67  65  93 NE5       30.00S
$$

ARZ056-057-069-011000-
SOUTHEAST ARKANSAS

CITY           SKY/WX    TMP DP  RH WIND       PRES   REMARKS
PINE BLUFF     CLOUDY    68  64  87 NE5       30.02F
STUTTGART      CLOUDY    70  64  83 N7        30.05S
MONTICELLO     CLOUDY    70  67  90 NE7       30.00F

$$




USA.gov is the U.S. government's official web portal to all federal, state and local government web resources and services.